• In Hungary
  • List of Countries
  • For 7 days
  • Water Temperature
  • Satellite Maps
  • Weather Map
  • News
  • Weather Widgets
  • user-avatar
    Login

    Hourly Weather Zator

    Today, 22 October, Monday

    Time Temperature Precipitation Wind Pressure Humidity
    00:00 +6°C° 0 mm 1 mps 757 mmHg 83%
    01:00 +6°C° 0 mm 1 mps 757 mmHg 84%
    02:00 +6°C° 0 mm 1 mps 757 mmHg 85%
    03:00 +6°C° 0 mm 1 mps 757 mmHg 86%
    04:00 +5°C° 0 mm 1 mps 756 mmHg 86%
    05:00 +4°C° 0 mm 2 mps 756 mmHg 86%
    06:00 +4°C° 0 mm 2 mps 756 mmHg 86%
    07:00 +4°C° 0 mm 2 mps 756 mmHg 82%
    08:00 +6°C° 0 mm 2 mps 756 mmHg 75%
    09:00 +8°C° 0 mm 3 mps 756 mmHg 68%
    10:00 +9°C° 0 mm 3 mps 755 mmHg 61%
    11:00 +10°C° 0 mm 3 mps 755 mmHg 58%
    12:00 +11°C° 0 mm 4 mps 754 mmHg 55%
    13:00 +12°C° 0 mm 4 mps 754 mmHg 52%
    14:00 +12°C° 0 mm 4 mps 753 mmHg 54%
    15:00 +11°C° 0 mm 3 mps 753 mmHg 57%
    16:00 +11°C° 0 mm 3 mps 753 mmHg 60%
    17:00 +11°C° 0.1 mm 3 mps 753 mmHg 65%
    18:00 +10°C° 0.1 mm 4 mps 753 mmHg 70%
    19:00 +10°C° 0.1 mm 4 mps 753 mmHg 75%
    20:00 +10°C° 0.2 mm 4 mps 753 mmHg 76%
    21:00 +8°C° 0.2 mm 4 mps 753 mmHg 78%
    22:00 +7°C° 0.2 mm 4 mps 753 mmHg 80%
    23:00 +7°C° 0 mm 4 mps 753 mmHg 81%

    Tomorrow, 23 October, Tuesday

    Time Temperature Precipitation Wind Pressure Humidity
    00:00 +6°C° 0 mm 4 mps 753 mmHg 82%
    01:00 +5°C° 0 mm 4 mps 753 mmHg 83%
    02:00 +5°C° 0 mm 4 mps 753 mmHg 85%
    03:00 +4°C° 0 mm 4 mps 752 mmHg 86%
    04:00 +4°C° 0 mm 4 mps 752 mmHg 88%
    05:00 +3°C° 0 mm 5 mps 751 mmHg 85%
    06:00 +3°C° 0 mm 5 mps 751 mmHg 83%
    07:00 +5°C° 0 mm 5 mps 750 mmHg 80%
    08:00 +4°C° 0.4 mm 7 mps 749 mmHg 77%
    09:00 +5°C° 0.4 mm 8 mps 748 mmHg 75%
    10:00 +5°C° 0.4 mm 9 mps 747 mmHg 72%
    11:00 +5°C° 0.9 mm 9 mps 746 mmHg 73%
    12:00 +5°C° 0.9 mm 10 mps 744 mmHg 74%
    13:00 +4°C° 0.9 mm 11 mps 743 mmHg 75%
    14:00 +4°C° 0.8 mm 11 mps 742 mmHg 76%
    15:00 +6°C° 0.8 mm 11 mps 741 mmHg 78%
    16:00 +6°C° 0.8 mm 11 mps 739 mmHg 79%
    17:00 +7°C° 1 mm 11 mps 739 mmHg 81%
    18:00 +7°C° 1 mm 11 mps 738 mmHg 83%
    19:00 +8°C° 1 mm 10 mps 737 mmHg 85%
    20:00 +8°C° 2.1 mm 10 mps 736 mmHg 86%
    21:00 +8°C° 2.1 mm 9 mps 735 mmHg 87%
    22:00 +9°C° 2.1 mm 8 mps 735 mmHg 88%
    23:00 +9°C° 1.6 mm 8 mps 734 mmHg 86%

    Day after tomorrow, 24 October, Wednesday

    Time Temperature Precipitation Wind Pressure Humidity
    00:00 +7°C° 1.6 mm 8 mps 733 mmHg 85%
    01:00 +7°C° 1.6 mm 8 mps 732 mmHg 83%
    02:00 +7°C° 0.4 mm 9 mps 732 mmHg 77%
    03:00 +6°C° 0.4 mm 10 mps 732 mmHg 71%
    04:00 +4°C° 0.4 mm 12 mps 732 mmHg 64%
    05:00 +4°C° 0.1 mm 11 mps 733 mmHg 62%
    06:00 +3°C° 0.1 mm 10 mps 734 mmHg 60%
    07:00 +3°C° 0.1 mm 10 mps 735 mmHg 58%
    08:00 +3°C° 0 mm 10 mps 736 mmHg 54%
    09:00 +4°C° 0 mm 11 mps 736 mmHg 49%
    10:00 +4°C° 0 mm 12 mps 737 mmHg 45%
    11:00 +4°C° 0 mm 12 mps 737 mmHg 46%
    12:00 +5°C° 0 mm 12 mps 737 mmHg 47%
    13:00 +5°C° 0 mm 12 mps 737 mmHg 47%
    14:00 +5°C° 0 mm 12 mps 738 mmHg 48%
    15:00 +4°C° 0 mm 12 mps 738 mmHg 49%
    16:00 +4°C° 0 mm 11 mps 739 mmHg 50%
    17:00 +4°C° 0 mm 11 mps 740 mmHg 52%
    18:00 +3°C° 0 mm 10 mps 740 mmHg 53%
    19:00 +3°C° 0 mm 10 mps 741 mmHg 55%
    20:00 +3°C° 0 mm 9 mps 742 mmHg 57%
    21:00 +2°C° 0 mm 9 mps 742 mmHg 58%
    22:00 +2°C° 0 mm 8 mps 743 mmHg 60%
    23:00 +3°C° 0 mm 7 mps 743 mmHg 62%

    25 October, Thursday

    Time Temperature Precipitation Wind Pressure Humidity
    00:00 +3°C° 0 mm 7 mps 743 mmHg 64%
    01:00 +2°C° 0 mm 7 mps 743 mmHg 66%
    02:00 +2°C° 0 mm 6 mps 743 mmHg 68%
    03:00 +2°C° 0 mm 6 mps 742 mmHg 71%
    04:00 +2°C° 0 mm 5 mps 742 mmHg 73%
    05:00 +2°C° 0.3 mm 6 mps 741 mmHg 77%
    06:00 +3°C° 0.3 mm 6 mps 740 mmHg 81%
    07:00 +3°C° 0.3 mm 6 mps 739 mmHg 84%
    08:00 +5°C° 1 mm 7 mps 738 mmHg 84%
    09:00 +6°C° 1 mm 8 mps 738 mmHg 85%
    10:00 +8°C° 1 mm 9 mps 737 mmHg 85%
    11:00 +8°C° 0.3 mm 9 mps 737 mmHg 78%
    12:00 +8°C° 0.3 mm 10 mps 737 mmHg 72%
    13:00 +9°C° 0.3 mm 11 mps 737 mmHg 66%
    14:00 +8°C° 0.1 mm 9 mps 737 mmHg 66%
    15:00 +9°C° 0.1 mm 8 mps 738 mmHg 67%
    16:00 +9°C° 0.1 mm 7 mps 739 mmHg 67%
    17:00 +8°C° 0 mm 7 mps 739 mmHg 70%
    18:00 +8°C° 0 mm 7 mps 740 mmHg 72%
    19:00 +8°C° 0 mm 7 mps 741 mmHg 75%
    20:00 +6°C° 0 mm 7 mps 741 mmHg 76%
    21:00 +6°C° 0 mm 7 mps 741 mmHg 78%
    22:00 +6°C° 0 mm 7 mps 742 mmHg 80%
    23:00 +5°C° 0 mm 6 mps 742 mmHg 82%

    26 October, Friday

    Time Temperature Precipitation Wind Pressure Humidity
    00:00 +5°C° 0 mm 6 mps 742 mmHg 84%
    01:00 +5°C° 0 mm 6 mps 742 mmHg 86%
    02:00 +4°C° 0 mm 6 mps 743 mmHg 88%
    03:00 +5°C° 0 mm 5 mps 743 mmHg 90%
    04:00 +5°C° 0 mm 5 mps 743 mmHg 92%
    05:00 +5°C° 0 mm 4 mps 743 mmHg 92%
    06:00 +5°C° 0 mm 4 mps 744 mmHg 93%
    07:00 +4°C° 0 mm 3 mps 744 mmHg 93%
    08:00 +5°C° 0 mm 3 mps 744 mmHg 88%
    09:00 +7°C° 0 mm 3 mps 744 mmHg 84%
    10:00 +8°C° 0 mm 3 mps 744 mmHg 79%
    11:00 +8°C° 0 mm 4 mps 744 mmHg 74%
    12:00 +10°C° 0 mm 4 mps 744 mmHg 69%
    13:00 +11°C° 0 mm 4 mps 743 mmHg 64%
    14:00 +10°C° 0 mm 4 mps 743 mmHg 66%
    15:00 +10°C° 0 mm 3 mps 743 mmHg 68%
    16:00 +9°C° 0 mm 3 mps 743 mmHg 70%
    17:00 +9°C° 0 mm 3 mps 742 mmHg 72%
    18:00 +8°C° 0 mm 3 mps 742 mmHg 74%
    19:00 +8°C° 0 mm 3 mps 742 mmHg 76%
    20:00 +8°C° 0 mm 3 mps 742 mmHg 77%
    21:00 +8°C° 0 mm 3 mps 742 mmHg 78%
    22:00 +6°C° 0 mm 4 mps 741 mmHg 79%
    23:00 +7°C° 0 mm 4 mps 741 mmHg 80%

    27 October, Saturday

    Time Temperature Precipitation Wind Pressure Humidity
    00:00 +7°C° 0 mm 4 mps 740 mmHg 82%
    01:00 +7°C° 0 mm 4 mps 740 mmHg 84%
    02:00 +7°C° 0 mm 4 mps 739 mmHg 84%
    03:00 +7°C° 0 mm 4 mps 739 mmHg 84%
    04:00 +8°C° 0 mm 3 mps 739 mmHg 84%
    05:00 +8°C° 0 mm 3 mps 739 mmHg 86%
    06:00 +8°C° 0 mm 3 mps 739 mmHg 87%
    07:00 +7°C° 0 mm 3 mps 739 mmHg 89%
    08:00 +9°C° 0 mm 3 mps 739 mmHg 84%
    09:00 +10°C° 0 mm 3 mps 739 mmHg 79%
    10:00 +11°C° 0 mm 3 mps 739 mmHg 75%
    11:00 +12°C° 0 mm 3 mps 739 mmHg 71%
    12:00 +13°C° 0 mm 2 mps 739 mmHg 68%
    13:00 +14°C° 0 mm 2 mps 738 mmHg 64%
    14:00 +13°C° 0 mm 1 mps 738 mmHg 67%
    15:00 +13°C° 0 mm 1 mps 738 mmHg 70%
    16:00 +11°C° 0 mm 0 mps 738 mmHg 73%
    17:00 +12°C° 0.3 mm 1 mps 738 mmHg 76%
    18:00 +12°C° 0.3 mm 2 mps 737 mmHg 79%
    19:00 +10°C° 0.3 mm 3 mps 737 mmHg 82%
    20:00 +10°C° 1.4 mm 3 mps 736 mmHg 85%
    21:00 +10°C° 1.4 mm 4 mps 736 mmHg 87%
    22:00 +10°C° 1.4 mm 4 mps 735 mmHg 90%
    23:00 +10°C° 0.5 mm 4 mps 735 mmHg 90%

    28 October, Sunday

    Time Temperature Precipitation Wind Pressure Humidity
    00:00 +10°C° 0.5 mm 4 mps 735 mmHg 90%
    01:00 +10°C° 0.5 mm 4 mps 734 mmHg 90%
    02:00 +10°C° 0.3 mm 4 mps 734 mmHg 89%
    03:00 +10°C° 0.3 mm 3 mps 734 mmHg 89%
    04:00 +10°C° 0.3 mm 3 mps 733 mmHg 89%
    05:00 +10°C° 0.1 mm 3 mps 733 mmHg 89%
    06:00 +10°C° 0.1 mm 3 mps 733 mmHg 89%
    07:00 +10°C° 0.1 mm 3 mps 733 mmHg 90%
    08:00 +10°C° 0.5 mm 2 mps 734 mmHg 90%
    09:00 +10°C° 0.5 mm 2 mps 734 mmHg 90%
    10:00 +10°C° 0.5 mm 2 mps 734 mmHg 90%
    11:00 +10°C° 0.2 mm 3 mps 734 mmHg 88%
    12:00 +11°C° 0.2 mm 3 mps 735 mmHg 86%
    13:00 +11°C° 0.2 mm 4 mps 735 mmHg 85%
    14:00 +9°C° 0 mm 5 mps 736 mmHg 84%
    15:00 +9°C° 0 mm 5 mps 736 mmHg 83%
    16:00 +8°C° 0 mm 6 mps 737 mmHg 83%
    17:00 +7°C° 0 mm 6 mps 738 mmHg 82%
    18:00 +7°C° 0 mm 6 mps 739 mmHg 81%
    19:00 +5°C° 0 mm 6 mps 740 mmHg 81%
    20:00 +5°C° 0 mm 6 mps 741 mmHg 81%
    21:00 +5°C° 0 mm 6 mps 742 mmHg 81%
    22:00 +4°C° 0 mm 6 mps 743 mmHg 81%
    23:00 +5°C° 0 mm 5 mps 744 mmHg 83%
    Show more